Weather WX

World > North America > United States > Ohio

Lafferty, Ohio Regional Weather

Lat: 40.11N, Lon: 81.02W
Wx Zone: OHZ059
Warning FLW WEATHER ALERT - FLASH FLOOD WATCH (More Info. Click Here) Warning
Feedback

Lafferty, OH Regional Weather

Expires:201906202200;;806150
ASUS41 KCLE 202112
RWRCLE
OHIO REGIONAL WEATHER ROUNDUP
NATIONAL WEATHER SERVICE WILMINGTON, OH
500 PM EDT THU JUN 20 2019

NOTE: "FAIR" INDICATES FEW OR NO CLOUDS BELOW 12,000 FEET WITH NO
SIGNIFICANT WEATHER AND/OR OBSTRUCTIONS TO VISIBILITY.


OHZ036-037-039>041-045>050-054>059-063>069-073>076-082>088-202200-
  CENTRAL AND SOUTHEAST OHIO
  
CITY           SKY/WX    TMP DP  RH WIND       PRES   REMARKS
COLUMBUS       LGT RAIN  69  65  86 W14G22    29.59R                  
OSU AIRPORT    CLOUDY    69  64  84 W18G32    29.59R                  
BOLTON FIELD   CLOUDY    70  66  88 W18G24    29.61R                  
RICKENBACK AFB LGT RAIN  69  65  88 W18G31    29.60R                  
NEWARK         PTSUNNY   72  67  84 W15G24    29.57R                  
MARION         LGT RAIN  69  66  90 W17G24    29.58R FOG              
LANCASTER      PTSUNNY   74  64  71 W17G30    29.59R                  
ZANESVILLE     CLOUDY    75  67  76 SW12G23   29.56S                  
NEW PHILLY     FAIR      73  68  84 S7        29.56F                  
$$
  

SKY/WX - Weather  TMP - Temperature  DP - Dew Point  RH - Relative Humidity
WIND - Wind Direction/Speed PRES - Barometric Pressure VSB - Visibility
WCI - Wind Chill Index E13G22 Wind - East Wind 13 mph/Gusts of 22 mph